Keps
Threads by month
- ----- 2025 -----
- February
- January
- ----- 2024 -----
- December
- November
- October
- September
- August
- July
- June
- May
- April
- March
- February
- January
- ----- 2023 -----
- December
- November
- October
- September
- August
- July
- June
- May
- April
- March
- February
- January
- ----- 2022 -----
- December
- November
- October
- September
- August
- July
- June
- May
- April
- March
- February
- January
- ----- 2021 -----
- December
- November
- October
- September
- August
- July
- June
- May
- April
- March
- February
- January
- ----- 2020 -----
- December
- November
- October
- September
- August
- July
- June
- May
- April
- March
- February
- January
- ----- 2019 -----
- December
- November
- October
- September
- August
- July
- June
- May
- April
- March
- February
- January
- ----- 2018 -----
- December
- November
- October
- September
- August
- July
- June
- May
- April
- March
- February
- January
- ----- 2017 -----
- December
- November
- October
- September
- August
- July
- June
- May
- April
- March
- February
- January
- ----- 2016 -----
- December
- November
- October
- September
- August
- July
- June
- May
- April
- March
- February
- January
- ----- 2015 -----
- December
- November
- October
- September
- August
- July
- June
- May
- April
- March
- February
- January
- ----- 2014 -----
- December
- November
- October
- September
- August
- July
- June
- May
- April
- March
- February
- January
- ----- 2013 -----
- December
- November
- October
- September
- August
- July
- June
- May
- April
- March
- February
- January
- ----- 2012 -----
- December
- November
- October
- September
- August
- July
- June
- May
- April
- March
- February
- January
- ----- 2011 -----
- December
- November
- October
- September
- August
- July
- June
- May
- April
- March
- February
- January
- ----- 2010 -----
- December
- November
- October
- September
- August
- July
- June
- May
- April
- March
- February
- January
- ----- 2009 -----
- December
- November
- October
- September
- August
- July
- June
- May
- April
- March
- February
- January
- ----- 2008 -----
- December
- November
- October
- September
- August
- July
- June
- May
- April
- March
- February
- January
- ----- 2007 -----
- December
- November
- October
- September
- August
- July
- June
- May
- April
- March
- February
- January
- ----- 2006 -----
- December
- November
- October
- September
March 2014
- 1 participants
- 12 discussions
SB KEPS @ AMSAT $ORB14086.N
2Line Orbital Elements 14086.AMSAT
HR AMSAT ORBITAL ELEMENTS FOR AMATEUR SATELLITES IN NASA FORMAT
FROM WA5QGD FORT WORTH,TX March 27, 2014
BID: ORB14086.N
DECODE 2-LINE ELSETS WITH THE FOLLOWING KEY:
1 AAAAAU 00 0 0 BBBBB.BBBBBBBB .CCCCCCCC 00000-0 00000-0 0 DDDZ
2 AAAAA EEE.EEEE FFF.FFFF GGGGGGG HHH.HHHH III.IIII JJ.JJJJJJJJKKKKKZ
KEY: A-CATALOGNUM B-EPOCHTIME C-DECAY D-ELSETNUM E-INCLINATION F-RAAN
G-ECCENTRICITY H-ARGPERIGEE I-MNANOM J-MNMOTION K-ORBITNUM Z-CHECKSUM
TO ALL RADIO AMATEURS BT
AO-07
1 07530U 74089B 14086.82703944 -.00000046 00000-0 -18141-4 0 9260
2 07530 101.4654 071.3598 0012397 093.9631 023.1508 12.53603758801327
FO-29
1 24278U 96046B 14086.13714816 -.00000025 00000-0 78032-5 0 3355
2 24278 098.5176 111.3055 0351271 150.4221 255.4488 13.53019314869572
SO-33
1 25509U 98061B 14085.88057420 .00001961 00000-0 37664-3 0 7160
2 25509 031.4308 266.7144 0349788 113.3420 025.2673 14.29406292805361
RS-22
1 27939U 03042A 14086.89499270 .00002009 00000-0 38249-3 0 3451
2 27939 097.8052 265.1078 0013805 010.4315 349.7182 14.65034165560823
VO-52
1 28650U 05017B 14086.77528981 .00004817 00000-0 56583-3 0 6931
2 28650 097.5608 095.8282 0026932 068.6922 291.7165 14.85085345481149
HO-68
1 36122U 09072B 14086.70719354 -.00000043 00000-0 00000 0 0 4449
2 36122 100.2595 141.0349 0007667 066.4853 293.7073 13.16313638205719
AO-73
1 39444U 13066AE 14085.97639954 .00004936 00000-0 67059-3 0 1006
2 39444 097.7787 159.4202 0063133 148.8551 211.6474 14.77865625 17321
UO-11
1 14781U 84021B 14086.78298495 .00001640 00000-0 21603-3 0 4493
2 14781 097.8609 148.4656 0010090 089.7040 270.5329 14.81435478615919
AO-16
1 20439U 90005D 14086.45454682 .00000378 00000-0 15599-3 0 9865
2 20439 098.5021 025.3544 0011578 046.6131 090.4477 14.32316350262785
LO-19
1 20442U 90005G 14085.79682533 .00000391 00000-0 15990-3 0 9234
2 20442 098.4727 025.6144 0012387 038.0956 322.1102 14.32519899262883
AO-27
1 22825U 93061C 14086.79354198 .00000319 00000-0 14179-3 0 6279
2 22825 098.6552 033.3429 0008797 169.4250 220.6994 14.29685903 69158
IO-26
1 22826U 93061D 14085.89041917 .00000330 00000-0 14502-3 0 3856
2 22826 098.6492 032.6785 0009424 165.5220 194.6234 14.29981572 69159
GO-32
1 25397U 98043D 14085.50796448 .00000190 00000-0 10200-3 0 3081
2 25397 098.4597 046.6223 0001737 149.1590 327.1931 14.23422487816109
NO-44
1 26931U 01043C 14086.70957068 .00000408 00000-0 18986-3 0 5634
2 26931 067.0514 248.5536 0005444 276.9088 083.1393 14.30075078651954
SO-50
1 27607U 02058C 14086.51700259 .00001703 00000-0 27880-3 0 3437
2 27607 064.5553 121.2726 0038395 038.8086 321.5761 14.73560905605448
CO-55
1 27844U 03031E 14085.98637294 .00000592 00000-0 29070-3 0 8860
2 27844 098.6996 095.9413 0010606 148.2305 264.4240 14.21440250556901
CO-57
1 27848U 03031J 14085.50014381 .00000534 00000-0 26575-3 0 8276
2 27848 098.7088 095.1276 0010429 155.4312 357.8476 14.21136025556751
AO-51
1 28375U 04025K 14086.43044426 .00000432 00000-0 14136-3 0 8033
2 28375 098.2429 036.1622 0082192 238.9157 120.3948 14.41333017512123
CP3
1 31129U 07012N 14085.96239457 .00002416 00000-0 54316-3 0 7060
2 31129 097.9262 068.1558 0097222 266.9753 160.7239 14.54473225368086
CO-65
1 32785U 08021C 14086.59392834 .00003790 00000-0 44995-3 0 9058
2 32785 097.7100 140.5430 0015487 098.1056 067.2017 14.84958525319919
PRISM
1 33493U 09002B 14086.77352432 .00008869 00000-0 95507-3 0 7690
2 33493 098.2443 259.0277 0017335 352.3246 007.7768 14.88604662280066
SOHLA-1
1 33496U 09002E 14086.15185306 .00001220 00000-0 20852-3 0 3083
2 33496 098.1588 206.9412 0007492 138.0220 344.2883 14.70688151277456
TISAT-1
1 36799U 10035E 14086.77877017 .00006282 00000-0 74028-3 0 315
2 36799 098.0167 178.1965 0013122 223.2561 136.7641 14.85073348200636
STUDSAT
1 36801U 10035G 14086.46729247 .00026847 00000-0 24903-2 0 7936
2 36801 098.0327 184.4199 0010570 200.8636 289.9336 14.94358200200911
ALMASAT-1
1 38078U 12006B 14086.51770115 .00076394 00000-0 16916-2 0 9793
2 38078 069.4685 255.3886 0620262 140.3338 286.0218 14.43108710109829
XATCOBEO
1 38082U 12006F 14086.77993192 .00222598 13351-4 23513-2 0 730
2 38082 069.4499 180.1064 0332509 098.1902 004.1924 15.18050878111887
CUBEBUG-1
1 39153U 13018D 14086.68886018 .00003285 00000-0 46820-3 0 9753
2 39153 098.0456 167.1561 0016844 251.7162 108.2218 14.77388246 49521
ESTCUBE-1
1 39161U 13021C 14086.87573115 .00002559 00000-0 43731-3 0 9524
2 39161 098.1007 168.3703 0008732 298.0041 062.0284 14.69743720 47656
MET-3/5
1 21655U 91056A 14086.15217485 .00000122 00000-0 28538-3 0 9345
2 21655 082.5567 054.3719 0014214 138.7783 221.4416 13.17054760 87180
MET-2/21
1 22782U 93055A 14086.50443638 .00000080 00000-0 58682-4 0 122
2 22782 082.5490 238.1030 0023465 133.3189 288.6923 13.83730417 38822
OKEAN-4
1 23317U 94066A 14086.16801105 .00002278 00000-0 26163-3 0 4885
2 23317 082.5389 144.8211 0020701 015.5034 040.8871 14.85295080 50939
NOAA-14
1 23455U 94089A 14086.48415271 .00000091 00000-0 70868-4 0 6989
2 23455 098.7798 171.3638 0008438 270.4063 153.9643 14.13959869992403
NOAA-15
1 25338U 98030A 14086.74694450 .00000517 00000-0 21946-3 0 1281
2 25338 098.7493 080.7806 0011265 029.2678 330.9615 14.25378733825297
RESURS
1 25394U 98043A 14086.54261807 .00000139 00000-0 77913-4 0 6181
2 25394 098.4043 054.3909 0002476 122.3665 012.0324 14.24382167816697
FENGYUN1
1 25730U 99025A 14085.83618759 .00004660 00000-0 25756-2 0 1105
2 25730 098.9064 047.4741 0027716 345.1367 044.6748 14.11664303765903
OKEAN-0
1 25860U 99039A 14085.50137292 .00001795 00000-0 27375-3 0 2091
2 25860 098.0340 049.9095 0001156 083.3093 028.8346 14.75106638789963
NOAA-16
1 26536U 00055A 14086.46131111 .00000261 00000-0 16426-3 0 6177
2 26536 098.9988 146.4353 0011206 061.3061 054.1460 14.13012115696570
NOAA-17
1 27453U 02032A 14086.47701999 .00000348 00000-0 16700-3 0 5249
2 27453 098.3132 090.4978 0012524 059.1677 093.9011 14.24716708611051
NOAA-18
1 28654U 05018A 14086.47939508 .00000347 00000-0 21475-3 0 79
2 28654 099.1413 064.3731 0015200 131.4633 336.7160 14.11978689456035
NOAA-19
1 33591U 09005A 14086.49134758 .00000402 00000-0 24536-3 0 1750
2 33591 098.9384 031.8052 0013851 354.9723 116.3191 14.11674546264467
HUBBLE
1 20580U 90037B 14086.64732154 .00005283 00000-0 35105-3 0 4670
2 20580 028.4700 213.0284 0003441 126.6872 348.9827 15.05025231112427
ISS
1 25544U 98067A 14087.01143693 .00021013 00000-0 36052-3 0 9612
2 25544 051.6493 141.8905 0003532 001.9766 062.7859 15.51126890878738
CO-58
1 28895U 05043F 14086.07157402 .00002011 00000-0 41185-3 0 7263
2 28895 097.8423 292.1781 0016110 269.7372 090.1984 14.61705023448255
FALCON
1 30776U 07006E 14085.64014549 .00017159 00000-0 90418-3 0 8310
2 30776 035.4291 264.3594 0001704 291.6861 134.4574 15.14801833388200
MAST
1 31126U 07012K 14086.80372809 .00001340 00000-0 30376-3 0 68
2 31126 097.9083 071.9788 0091057 247.6889 231.8555 14.55132832368557
CAPE1
1 31130U 07012P 14086.47707929 .00002187 00000-0 49475-3 0 117
2 31130 097.9275 068.2258 0097778 266.5990 092.4019 14.54244757367931
COMPASS
1 32787U 08021E 14086.10862290 .00006082 00000-0 67822-3 0 8864
2 32787 097.7120 141.9749 0015552 094.0413 266.2582 14.87304991319986
AAUSAT2
1 32788U 08021F 14086.15059412 .00007738 00000-0 84773-3 0 8733
2 32788 097.7127 142.9072 0015046 092.9577 267.3362 14.87949989320049
DO-64
1 32789U 08021G 14086.17690826 .00013637 00000-0 13421-2 0 9092
2 32789 097.7301 148.6806 0013530 083.2254 336.7152 14.92133798320264
